Espace membre
Imprimable
Nieuwpoort, 16/11/2014, BEL - Neptunus Run
Liste des rapports > Neptunus Run 2014 - Classement
Recherche: Page: 1 2 3 4 5 6 [7]
3198 Entrées
 
Klik op het vergrootglas achter uw resultaat, om uw foto's en video's te bekijken.

Les réclamations ne sont plus acceptées, les résultats sont considérés comme définitifs.
Catégorie
PosNrNomAgeIOCEquipeTempsTkmMoy.RangNomLocalité
3001.1731MASTROGIACOMO Antoine18BEL1:42:5010:17 5.841646SEHMORLANWELZ-MARIEMONT
3002.1726GERARDY Antoine17BEL1:42:5110:18 5.831647SEHLA HESTRE
3003.1724BRUNO Diego19BEL1:42:5210:18 5.831648SEHMANAGE
3004.3156ROELANDT Wim38BEL1:42:5610:18 5.83276M35BAASRODE
3005.3153FDE BEN Marleen40BEL1:42:5710:18 5.8340F40BUGGENHOUT
3006.3151FROELANDT Katrien34BEL1:42:5810:18 5.83596SEFBUGGENHOUT
3007.3152FROELANDT Veerle34BEL1:42:5810:18 5.83597SEFERNÉE
3008.1951FPENNIE Dominique48BEL1:43:0110:19 5.8212F45ROOSDAAL
3009.2667FBAELE Evelien22BEL1:43:0710:19 5.82598SEFWAARSCHOOT
3010.2666FVAN HERZEELE Helena22BEL1:43:0810:19 5.82599SEFSLEIDINGE
3011.3389VAN DER VEKEN Bert27BEL1:43:1910:20 5.811649SEHAFFLIGEM
3012.1199BUVÉ Dean36BEL1:43:2910:21 5.80277M35TIENEN
3013.1194KARARMIS Serdal33BEL1:43:2910:21 5.801650SEHGENK
3014.391VAN ROY Marc45BEL1:43:3710:22 5.7982M45LONDERZEEL
3015.3092FGAUCHER Laetitia30BELLES CONKISADORS1:44:0810:25 5.76600SEFBRUXELLES
3016.3307DE LIEVER François37BEL1:44:1310:26 5.76278M35GEMBLOUX
3017.2389ECHTERBILLE Julien27BEL1:44:1510:26 5.761651SEHBRUXELLES
3018.2933FRAMEL Virginie27FRA1:44:1610:26 5.75601SEFWATERMAEL BOITSFORT
3019.2376FSTYLMAN Véronique25BEL1:44:1710:26 5.75602SEFWOLUWÉ SAINT LAMBERT
3020.2768CHAMPENOIS David27BEL1:44:1710:26 5.751652SEHTERVUREN
3021.2375CORNU Gwennael31BEL1:44:1710:26 5.751653SEHWOLUWÉ SAINT LAMBERT
3022.2600FPHILIPPE Caroline27BEL1:44:1710:26 5.75603SEFSCHAERBEEK
3023.1431FTRAN MY Hanh25BEL1:44:5810:30 5.72604SEFHANNUT
3024.1432COMBLIN Pierre-Philippe30BEL1:44:5910:30 5.721654SEHMOMALLE
3025.272FDE RIDDER Eva22BELWIN OR LOSE WE 1:45:0010:30 5.72605SEFHOFSTADE
3026.273FDE BONDT Anke22BELWIN OR LOSE WE 1:45:0010:30 5.72606SEFHOFSTADE
3027.1430FGEELEN Mélanie26BEL1:45:0010:30 5.72607SEFFUMAL
3028.1427FSWINNE Olivia26BEL1:45:0010:30 5.71608SEFLATINNE
3029.1428FSHEEREN Lindsay26BEL1:45:0010:30 5.71609SEFHANNUT
3030.1230FD'HONDT Nicky38BEL1:45:0310:31 5.7196F35STEENDORP
3031.1137FCOURARD Melody19BEL1:45:0310:31 5.71610SEFSTAVELOT
3032.1138FCOURARD Aurore16BEL1:45:0510:31 5.71611SEFSTAVELOT
3033.3411FFERSON Karen26BEL1:45:0510:31 5.71612SEFWIJGMAAL
3034.1698FFERSON Sanne23BEL1:45:0610:31 5.71613SEFLEUVEN
3035.1697FDEPRINS Lotte23BEL1:45:0710:31 5.71614SEFLEUVEN
3036.3410FDEPRINS Hannah21BEL1:45:0710:31 5.71615SEFKESSEL-LO
3037.2807GREGOIRE Jerome26BEL1:45:1510:32 5.701655SEHLOMPREZ
3038.1113FCAUCHIE Audrey26BEL1:45:1510:32 5.70616SEFBOUGE
3039.1114FLIBAN Julien26BEL1:45:1510:32 5.70617SEFSOHIER
3040.3338FWILLIAMS Sandy32BEL1:45:3410:34 5.68618SEFBRAINE-L'ALLEUD
3041.3337FBLACKS Stephanie25BEL1:45:3410:34 5.68619SEFGRAND-ROSIÈRE-HOTTOMONT
3042.3129FVAN TROY Melody26BEL1:45:3910:34 5.68620SEFDEINZE
3043.3130FDECKERS Isabelle24BEL1:45:3910:34 5.68621SEFZWIJNAARDE
3044.510DE RIDDER Tom32BELBAMBAAR1:46:0110:37 5.661656SEHBAARDEGEM
3045.2455FCHAMPAGNE Laetitia33BELLES RAMONEURS1:46:0910:37 5.65622SEFMERDOP
3046.2451FVENS Virginie39BELLES RAMONEURS1:46:1010:37 5.6597F35WASSEIGES
3047.2450TROUSSONS Alexandre39BELLES RAMONEURS1:46:1010:37 5.65279M35WASSEIGES
3048.2446LARDINOIS Christophe38BELLES RAMONEURS1:46:1010:37 5.65280M35WASSEIGES
3049.2457FRADET Nicolas25BELLES RAMONEURS1:46:1010:37 5.651657SEHANGLEUR
3050.2453LEHEUREUX Olivier40BELLES RAMONEURS1:46:1010:37 5.65174M40BRANCHON
3051.2456BERGERON Jessy25FRALES RAMONEURS1:46:1110:38 5.651658SEHSAINT JUST LUZAC
3052.2458DARDENNE Bernard47BELLES RAMONEURS1:46:1110:38 5.6583M45MEEFFE
3053.2459FPIRAPREZ Benedicte36BELLES RAMONEURS1:46:1210:38 5.6598F35MEEFFE
3054.2445FMOTTET Emanulle43BELLES RAMONEURS1:46:1310:38 5.6541F40WASSEIGES
3055.2452FGRÉGOIRE Isabelle40BELLES RAMONEURS1:46:1310:38 5.6542F40BRANCHON
3056.2640KEMPENAERS Michel28BEL1:47:0110:43 5.611659SEHHERENTALS
3057.2641FVAN PELT Jessica26BEL1:47:0110:43 5.61623SEFHERENTALS
3058.2642FSCHOOFS Ann32BEL1:47:0210:43 5.61624SEFGEEL
3059.3458POTTIEZ Tim38BEL1:47:0210:43 5.61281M35GEEL
3060.1408PEREMANS David26BEL1:47:0610:43 5.601660SEHNINOVE
3061.1407WALCKIERS Kenneth27BEL1:47:0610:43 5.601661SEHOKEGEM
3062.2202NEUKERMANS Matthias28BEL1:47:0710:43 5.601662SEHGENT
3063.378FKEUNEN Tamara34BEL1:47:4010:46 5.57625SEFKERMT
3064.1417TURINE Patrick29BEL1:48:1510:50 5.541663SEHJALLET
3065.684SIONGERS Maarten28BEL1:48:5410:54 5.511664SEHGEEL
3066.683FSIONGERS Saar29BEL1:49:2310:57 5.49626SEFHERENTALS
3067.1634FDEWULF Stefanie25BEL1:49:4510:59 5.47627SEFBLANKENBERGE
3068.1633CLAERHOUDT Keefe35BEL1:49:4510:59 5.47282M35BLANKENBERGE
3069.2023DE VISSCHER Nicolas37BELJAMAICAN TEAM1:50:2411:03 5.44283M35OVERIJSE
3070.2693VERHOEST Anton22BEL1:50:4911:05 5.411665SEHVICHTE
3071.2583KNAPEN David27BELTHE MIRACLE WOR1:50:4911:05 5.411666SEHHERENT
3072.2588FÖRSTER Jan26CZETHE MIRACLE WOR1:50:4911:05 5.411667SEHANTWERPEN
3073.2587LISOVOY Andriy37BELTHE MIRACLE WOR1:50:5011:05 5.41284M35ETTERBEEK
3074.1568DEMOOR Sander23BELKLJ KOEKELARE1:50:5011:05 5.411668SEHTORHOUT
3075.2580SCHROEDERS Tonny36BELTHE MIRACLE WOR1:50:5011:05 5.41285M35HULDENBERG
3076.2585FGHYSELS Sandra47BELTHE MIRACLE WOR1:50:5011:05 5.4113F45BERTEM
3077.2581RENARD Kurt43BELTHE MIRACLE WOR1:50:5111:06 5.41175M40BLANDEN
3078.1569FDE BRABANDER Liesbeth20BELKLJ KOEKELARE1:50:5111:06 5.41628SEFVLADSLO
3079.2582INAN Mehmet33BELTHE MIRACLE WOR1:50:5111:06 5.411669SEHLEOPOLDSBURG
3080.2590DEBLIECK Bastiaan47BELTHE MIRACLE WOR1:50:5111:06 5.4184M45ROTSELAAR
3081.2584FRANCO Andrés29COLTHE MIRACLE WOR1:50:5111:06 5.411670SEHLEUVEN
3082.2589PEREMANS Bart22BEL1:50:5111:06 5.411671SEHTESSENDERLO
3083.2586KREMER Karel26BELTHE MIRACLE WOR1:50:5311:06 5.411672SEHHEVERLEE
3084.405HAJDU Peter32FRA1:51:2111:09 5.391673SEHGAURAIN RAMECROIX
3085.1998FMAENE Tatjana18BEL1:51:3111:10 5.38629SEFZWEVEGEM
3086.404FILIOPOULOS Olympe34BEL1:51:3711:10 5.38630SEFGAURAIN RAMECROIX
3087.406ILIOPOULOS Vassilis20BEL1:51:3811:10 5.381674SEHGAURAIN RAMECROIX
3088.407FHUBERT Inès20BEL1:51:3811:10 5.38631SEFGAURAIN RAMECROIX
3089.1459FVAN LOOCK Christine44BEL1:52:3811:16 5.3343F40MECHELEN
3090.2309FSCHELFHOUT Charlotte27BEL1:52:4011:16 5.33632SEFDEERLIJK
3091.2310NUYTENS Dirk50BEL1:52:4011:16 5.3346M50DEERLIJK
3092.2720FTHIENPONT Marijke26BELMORITURI TE SAL1:54:2111:27 5.25633SEFLOKEREN
3093.2718DERIDDER Jordy29BELMORITURI TE SAL1:54:2111:27 5.251675SEHOOSTKAMP
3094.2721VAN DE WALLE Andy29BELMORITURI TE SAL1:54:2411:27 5.251676SEHZELZATE
3095.759DAEMS Kjell27BEL1:55:2811:33 5.201677SEHMERKSEM
3096.757FLAUREYSSENS Ellen26BEL1:55:2911:33 5.20634SEFDEURNE
3097.2148FSCHAEFS Martine60BELKONING DRIETAND1:56:1411:38 5.162F60SINT-GENESIUS-RODE
3098.2146FBERTELOOT Joke34BELKONING DRIETAND1:56:1511:38 5.16635SEFBRUSSEL
3099.2149MAES William57BELKONING DRIETAND1:56:1511:38 5.1620M55SCHEPDAAL
3100.2154FVAN DE WINCKEL Nathalie34BELKONING DRIETAND1:56:1711:38 5.16636SEFLOKEREN
3101.2156FPLASSCHAERT Hilde43BELKONING DRIETAND1:56:1811:38 5.1644F40GOOIK
3102.2147FMICHIELS Cindy37BELKONING DRIETAND1:56:1811:38 5.1699F35ROOSDAAL
3103.2151FMICHIELS Wendy36BELKONING DRIETAND1:56:1911:38 5.16100F35DILBEEK
3104.1475VAN WYNSBERGE Tim26BEL1:57:0011:42 5.131678SEHASSENEDE
3105.1476FANTHUENIS Gwendoline23BEL1:57:0111:43 5.13637SEFEKSAARDE
3106.1479FFOKET Annick33BEL1:57:0211:43 5.13638SEFEEKLO
3107.1480WOLFF Bjorn37BEL1:57:0211:43 5.13286M35EEKLO
3108.1477TEMMERMANS Joura36BEL1:57:0411:43 5.13287M35SINAAI
3109.1478FBEIRENS Patricia36BEL1:57:0411:43 5.13101F35SINAAI
3110.495FSMETS Sandra20BEL1:58:5111:54 5.05639SEFRAMSDONK
3111.494FVERCAUTEREN Xantha19BEL1:58:5211:54 5.05640SEFPUURS
3112.286FSIMON Audrey39BEL1:59:2211:57 5.03102F35JETTE
3113.295COURCOUTELIS Panagiotis47BEL1:59:2311:57 5.0385M45SINT STEVENS WOLUWE
3114.282FBALLIEU Leslie46BEL1:59:2311:57 5.0314F45JETTE
3115.294LAURENT Marc46BEL1:59:2311:57 5.0386M45SINT STEVENS WOLUWE
3116.287FSIMON Annick47BEL1:59:2411:57 5.0315F45JETTE
3117.285FGRAINDOR Catherine39BEL1:59:2411:57 5.03103F35JETTE
3118.2270FRANÇOIS Felix28BELHET VLIEGEND TA2:02:2812:15 4.901679SEHMARKE
3119.2268DHAENE Till29BELHET VLIEGEND TA2:02:3012:15 4.901680SEHMARKE
3120.2267FMCAMARA Cécile26BELHET VLIEGEND TA2:02:3112:16 4.90641SEFMARKE
3121.2263FDIERICKX Ruth21BELHET VLIEGEND TA2:02:3112:16 4.90642SEFMARKE
3122.2266DIZZIEKIEDIE Mikael28BELHET VLIEGEND TA2:02:3112:16 4.901681SEHMARKE
3123.2269BLANCO Jeff34BELHET VLIEGEND TA2:02:3112:16 4.901682SEHMARKE
3124.2261FDESMET Nel25BELHET VLIEGEND TA2:02:3212:16 4.90643SEFMARKE
3125.2265FLIPPO Laura19BELHET VLIEGEND TA2:02:3212:16 4.90644SEFMARKE
3126.2262NACHTERGAELE Andres23BELHET VLIEGEND TA2:02:3212:16 4.901683SEHMARKE
3127.2264FRANÇOIS Margot27BELHET VLIEGEND TA2:02:3212:16 4.901684SEHMARKE
3128.969FMIGNOLET Laura25BEL2:03:0312:19 4.88645SEFTUBIZE
3129.968VAN CAMPENHOUT Nick26BEL2:03:0312:19 4.881685SEHGOOIK
3130.2975WAMBEKE Arne23BELDE NIEWEIRS2:04:0012:24 4.841686SEHWIELSBEKE
3131.2972HIMPE Dimitri27BELDE NIEWEIRS2:04:0112:25 4.841687SEHINGOOIGEM
3132.2977CLAEYS Luc28BELDE NIEWEIRS2:04:0212:25 4.841688SEHANZEGEM
3133.2979CATTEEUW Dieter28BELDE NIEWEIRS2:04:0212:25 4.841689SEHWAREGEM
3134.2978HUGELIER Davy26BELDE NIEWEIRS2:04:0312:25 4.841690SEHDEERLIJK
3135.2981FDEMUYNCK Evy25BELDE NIEWEIRS2:04:0412:25 4.84646SEFKORTRIJK
3136.2974FVANDERWEE Sally24BELDE NIEWEIRS2:04:0512:25 4.84647SEFROESELARE
3137.2973FLEFLERE Thailien23BELDE NIEWEIRS2:04:0512:25 4.84648SEFIZEGEM
3138.2976VANDENWEGHE Naim26BELDE NIEWEIRS2:04:0712:25 4.831691SEHIZEGEM
3139.1362VERCRUYSSE Bart37BEL2:06:3212:40 4.74288M35OOSTDUINKERKE
3140.1363FHARTMAN Vanessa37BEL2:06:3212:40 4.74104F35OOSTDUINKERKE
3141.1386STRUELENS Bryan16BEL2:06:3212:40 4.741692SEHLOMBARDSIJDE
3142.3134FVANDERBORGHT Jolijn25BEL2:06:4912:41 4.73649SEFBETEKOM
3143.1546FEL KADIRI Wiam26MARDECATHLON WILLE2:09:3312:58 4.63650SEFGRIMBERGEN
3144.1139FJAMBÉ Silke23BEL2:11:2413:09 4.57651SEFTIELT-WINGE
3145.1140FVAN GUCHT Evelien30BEL2:11:2513:09 4.57652SEFTIELT-WINGE
3146.1316FTUBELLO Camill20BELTHE BRAVE BARBA2:14:2913:27 4.46653SEFGOZÉE
3147.1315FSAINTES Aurélie27BELTHE BRAVE BARBA2:14:2913:27 4.46654SEFTRAZEGNIES
3148.2596MOERMAN Jochen29BEL2:54:2817:27 3.441693SEHGENT
3149.2594FCOPEJANS Liesbeth24BEL2:54:2817:27 3.44655SEFVORST
3150.2595FTIMMERMANS Jolien23BEL2:54:2817:27 3.44656SEFVOLLEZELE
3151.2591BOCKAERT Koen33BEL2:54:2817:27 3.441694SEHKNESSELARE
3152.2592GEVELS Stijn28BEL2:54:2817:27 3.441695SEHMACHELEN
DNF3095FANELITA Cassan25BELLES CONKISADORSSEFIXELLES
DNF2166FBACKAERT Maaike24BELSEFIDDERGEM
DNF2980BEIRLAEN Jurgen29BELDE NIEWEIRSSEHOESELGEM
DNF1989BESLIC Filip29BELSEHHEVERLEE
DNF1583FBLANCKAERT Anne-Laure33BELDENTSU AEGIS NESEFWAVER
DNF348CARREIN Michael21BELSEHMENEN
DNF80D'HOOGE Hendrik44BELM40ZELE
DNF3312FDE VRIENDT Josie20BELSEFBASSEVELDE
DNF332DELEU Mattias38BELM35MOERBEKE
DNF3094FDUCARDONNET Claire30FRALES CONKISADORSSEFIXELLES
DNF68DULST Laurens20BELSEHKEIEM
DNF3373ENEESKIONS Ernst53BELM50
DNF3113FRANCK Nicolas29FRATHE ANTIEXPENDASEHLILLE
DNF2940GERLO Günther38BELM35HOBOKEN
DNF2560FGOETHALS Fien23BELTOPTEAMSEFDIKSMUIDE
DNF3048HAMERS Arnaud33BELJOIN THE FISTSEHESNEUX
DNF1032FHOOGHE Sara25BELSEFOTEGEM
DNF1775HUIGE Danny43NLDM40DUFFEL
DNF1847HUNYADI Kevin22BELSEHOOSTAKKER
DNF2903HUWEL Dries30BELLOGI-TECHNIC RUSEHJABBEKE
DNF2886FLE PERA Sandra30BELCROSSFIT MOLSEFMOL
DNF52LEENAERTS Steven22BELSEHPULDERBOS
DNF453LEENDERS Davy33BELSEHVILVOORDE
DNF3174MATGÉ David25LUXSEHSCHIFFLANGE
DNF3121MEERT David27BELSEHAALST
DNF2766FMURRAY Sarah40BELF40UCCLE
DNF2919ORFANOS Nico22BELTWBSEHANTWERPEN
DNF2145RIHON Tom18BELLES MARNEFFOISSEHVINALMONT
DNF215FROY Muriel27BELSEFBRUXELLES
DNF2187SARRE Thomas31BELSEHROESELARE
DNF2280SIX Thomas35BELKWALLENM35GELUWE
DNF3264THOMAS Jorn19BELSEHGRIMBERGEN
DNF2430VAN CLEYNENBREUGEL Jens23BELSEHLUBBEEK
DNF1467VAN DEN BROECK Tom29BELSEHEEKLO
DNF1013VAN ELSACKER Jan31BELSEHMALLE
DNF2443FVAN GEERTRUYDEN Anke28BELSEFANTWERPEN
DNF2361VAN KWIKKELBERGHE Jan31BELSEHMIDDELKERKE
DNF1020VAN OVERWALLE Jona19BELSEHWETTEREN
DNF1591VANDERSEYPEN Nicolas35BELDENTSU AEGIS NEM35BRUSSEL
DNF2209VANDEWEYER Bart29BELSEHTONGEREN
DNF2331VANLEEUW Patrick48BELM45HERK DE STAD
DNF2806FVANTHOURNOUT Axelle28BELSEFKNOKKE
DNF2072VERSCHUEREN Dennis23BELSEHSCHRIEK
DNF3017VERWÉE Tiago16BELSEHANDERLECHT
DNF1100VIERSTRAETE Dimitri34BELSEHTORHOUT
DNF2615VYNCK Kevin26BELSEHNIEUWPOORT
DNF: abandon; DSQ: disqualifié; Vitesse en km/h
Page: 1 2 3 4 5 6 [7]